| time (UTC) | temp F | wind direction | speed MPH | gust MPH | rain 1hr in | rain 24hr in | rain mn in | humidity % | barometer mb |
| 20260906181041 | 87 | 39 | 4.0 | 10.0 | 0.00 | 0.00 | 0.00 | 61 | 1013.0 |
| 20260906180539 | 87 | 64 | 4.0 | 10.0 | 0.00 | 0.00 | 0.00 | 60 | 1012.9 |
| 20260906180054 | 87 | 305 | 4.0 | 9.0 | 0.00 | 0.00 | 0.00 | 60 | 1012.9 |
| 20260906175538 | 87 | 352 | 2.0 | 9.0 | 0.00 | 0.00 | 0.00 | 62 | 1013.0 |
| 20260906175039 | 86 | 0 | 0.0 | 5.0 | 0.00 | 0.00 | 0.00 | 65 | 1013.0 |
| 20260906174552 | 86 | 291 | 1.0 | 9.0 | 0.00 | 0.00 | 0.00 | 64 | 1013.2 |
| 20260906174038 | 86 | 350 | 3.0 | 9.0 | 0.00 | 0.00 | 0.00 | 65 | 1013.2 |
| 20260906173539 | 86 | 36 | 3.0 | 9.0 | 0.00 | 0.00 | 0.00 | 65 | 1013.3 |
| 20260906173049 | 86 | 0 | 2.0 | 4.0 | 0.00 | 0.00 | 0.00 | 67 | 1013.4 |
| 20260906172539 | 85 | 248 | 0.0 | 4.0 | 0.00 | 0.00 | 0.00 | 68 | 1013.3 |
| 20260906172038 | 85 | 0 | 2.0 | 5.0 | 0.00 | 0.00 | 0.00 | 69 | 1013.4 |
| 20260906171557 | 85 | 335 | 2.0 | 7.0 | 0.00 | 0.00 | 0.00 | 69 | 1013.4 |
| 20260906171038 | 85 | 225 | 4.0 | 8.0 | 0.00 | 0.00 | 0.00 | 68 | 1013.5 |
| 20260906170538 | 84 | 232 | 3.0 | 8.0 | 0.00 | 0.00 | 0.00 | 70 | 1013.6 |
| 20260906170057 | 84 | 240 | 2.0 | 5.0 | 0.00 | 0.00 | 0.00 | 72 | 1013.7 |
| 20260906165540 | 84 | 30 | 2.0 | 6.0 | 0.00 | 0.00 | 0.00 | 72 | 1013.8 |
| 20260906165041 | 84 | 263 | 2.0 | 6.0 | 0.00 | 0.00 | 0.00 | 72 | 1013.7 |
| 20260906164552 | 84 | 250 | 3.0 | 6.0 | 0.00 | 0.00 | 0.00 | 72 | 1013.8 |
| 20260906164038 | 84 | 251 | 2.0 | 8.0 | 0.00 | 0.00 | 0.00 | 72 | 1013.8 |
| 20260906163538 | 84 | 311 | 1.0 | 8.0 | 0.00 | 0.00 | 0.00 | 72 | 1013.9 |
| 20260906163102 | 84 | 243 | 2.0 | 5.0 | 0.00 | 0.00 | 0.00 | 73 | 1014.1 |
| 20260906162538 | 83 | 130 | 2.0 | 8.0 | 0.00 | 0.00 | 0.00 | 74 | 1014.3 |
| 20260906162037 | 83 | 304 | 0.0 | 8.0 | 0.00 | 0.00 | 0.00 | 74 | 1014.2 |
| 20260906161556 | 82 | 296 | 3.0 | 8.0 | 0.00 | 0.00 | 0.00 | 74 | 1014.2 |
| 20260906161038 | 82 | 40 | 1.0 | 7.0 | 0.00 | 0.00 | 0.00 | 76 | 1014.2 |
| 20260906160538 | 82 | 346 | 3.0 | 7.0 | 0.00 | 0.00 | 0.00 | 77 | 1014.3 |
| 20260906160108 | 81 | 292 | 0.0 | 5.0 | 0.00 | 0.00 | 0.00 | 78 | 1014.4 |
| 20260906155538 | 81 | 5 | 2.0 | 5.0 | 0.00 | 0.00 | 0.00 | 78 | 1014.3 |
| 20260906155038 | 80 | 25 | 0.0 | 5.0 | 0.00 | 0.00 | 0.00 | 79 | 1014.4 |
| 20260906154603 | 80 | 209 | 2.0 | 5.0 | 0.00 | 0.00 | 0.00 | 80 | 1014.4 |
| 20260906154038 | 80 | 275 | 1.0 | 4.0 | 0.00 | 0.00 | 0.00 | 81 | 1014.2 |
| 20260906153537 | 79 | 259 | 1.0 | 5.0 | 0.00 | 0.00 | 0.00 | 81 | 1014.3 |
| 20260906153103 | 79 | 223 | 3.0 | 5.0 | 0.00 | 0.00 | 0.00 | 82 | 1014.4 |
| 20260906152541 | 79 | 236 | 3.0 | 5.0 | 0.00 | 0.00 | 0.00 | 82 | 1014.3 |
| 20260906152038 | 78 | 232 | 2.0 | 6.0 | 0.00 | 0.00 | 0.00 | 82 | 1014.2 |
| 20260906151557 | 78 | 238 | 2.0 | 6.0 | 0.00 | 0.00 | 0.00 | 82 | 1014.3 |
| 20260906151038 | 78 | 237 | 3.0 | 4.0 | 0.00 | 0.00 | 0.00 | 83 | 1014.4 |
| 20260906150538 | 78 | 252 | 1.0 | 4.0 | 0.00 | 0.00 | 0.00 | 83 | 1014.5 |
| 20260906150057 | 77 | 261 | 2.0 | 4.0 | 0.00 | 0.00 | 0.00 | 83 | 1014.5 |
| 20260906145538 | 77 | 250 | 2.0 | 4.0 | 0.00 | 0.00 | 0.00 | 83 | 1014.5 |
| 20260906145038 | 77 | 265 | 2.0 | 4.0 | 0.00 | 0.00 | 0.00 | 83 | 1014.5 |
| 20260906144600 | 77 | 290 | 1.0 | 4.0 | 0.00 | 0.00 | 0.00 | 83 | 1014.4 |
| 20260906144037 | 77 | 250 | 2.0 | 4.0 | 0.00 | 0.00 | 0.00 | 84 | 1014.6 |
| 20260906143539 | 76 | 244 | 1.0 | 4.0 | 0.00 | 0.00 | 0.00 | 84 | 1014.5 |
| 20260906143057 | 76 | 256 | 1.0 | 4.0 | 0.00 | 0.00 | 0.00 | 84 | 1014.4 |
| 20260906142538 | 76 | 246 | 2.0 | 4.0 | 0.00 | 0.00 | 0.00 | 84 | 1014.5 |
| 20260906142040 | 76 | 227 | 2.0 | 3.0 | 0.00 | 0.00 | 0.00 | 84 | 1014.6 |
| 20260906141556 | 76 | 0 | 0.0 | 3.0 | 0.00 | 0.00 | 0.00 | 84 | 1014.6 |
| 20260906141038 | 76 | 234 | 1.0 | 3.0 | 0.00 | 0.00 | 0.00 | 84 | 1014.6 |
| 20260906140541 | 76 | 257 | 0.0 | 3.0 | 0.00 | 0.00 | 0.00 | 84 | 1014.6 |
| 20260906140054 | 75 | 0 | 0.0 | 4.0 | 0.00 | 0.00 | 0.00 | 84 | 1014.6 |
| 20260906135538 | 75 | 98 | 1.0 | 4.0 | 0.00 | 0.00 | 0.00 | 84 | 1014.6 |
| 20260906135040 | 75 | 60 | 0.0 | 2.0 | 0.00 | 0.00 | 0.00 | 84 | 1014.6 |
| 20260906134557 | 74 | 17 | 0.0 | 2.0 | 0.00 | 0.00 | 0.00 | 84 | 1014.7 |
| 20260906134038 | 74 | 17 | 1.0 | 2.0 | 0.00 | 0.00 | 0.00 | 84 | 1014.7 |
| 20260906133537 | 74 | 0 | 0.0 | 2.0 | 0.00 | 0.00 | 0.00 | 84 | 1014.7 |
| 20260906133115 | 74 | 73 | 0.0 | 2.0 | 0.00 | 0.00 | 0.00 | 84 | 1014.6 |
| 20260906132539 | 74 | 0 | 0.0 | 2.0 | 0.00 | 0.00 | 0.00 | 84 | 1014.8 |
| 20260906132039 | 73 | 38 | 0.0 | 4.0 | 0.00 | 0.00 | 0.00 | 83 | 1014.9 |
| 20260906131556 | 73 | 157 | 0.0 | 4.0 | 0.00 | 0.00 | 0.00 | 83 | 1015.0 |
| 20260906131039 | 73 | 32 | 1.0 | 3.0 | 0.00 | 0.00 | 0.00 | 83 | 1015.0 |
| 20260906130539 | 72 | 66 | 0.0 | 4.0 | 0.00 | 0.00 | 0.00 | 82 | 1014.9 |
| 20260906130054 | 72 | 0 | 2.0 | 4.0 | 0.00 | 0.00 | 0.00 | 82 | 1014.7 |
| 20260906125539 | 72 | 16 | 1.0 | 4.0 | 0.00 | 0.00 | 0.00 | 82 | 1014.7 |
| 20260906125039 | 71 | 58 | 2.0 | 4.0 | 0.00 | 0.00 | 0.00 | 82 | 1014.9 |
| 20260906124600 | 71 | 47 | 3.0 | 4.0 | 0.00 | 0.00 | 0.00 | 82 | 1015.0 |
| 20260906124041 | 71 | 46 | 2.0 | 4.0 | 0.00 | 0.00 | 0.00 | 82 | 1014.9 |
| 20260906123542 | 71 | 28 | 2.0 | 4.0 | 0.00 | 0.00 | 0.00 | 82 | 1014.8 |
| 20260906123057 | 71 | 36 | 3.0 | 4.0 | 0.00 | 0.00 | 0.00 | 82 | 1014.6 |
| 20260906122539 | 71 | 17 | 1.0 | 4.0 | 0.00 | 0.00 | 0.00 | 82 | 1014.3 |
| 20260906122039 | 71 | 32 | 0.0 | 4.0 | 0.00 | 0.00 | 0.00 | 82 | 1014.2 |
| 20260906121554 | 71 | 0 | 0.0 | 4.0 | 0.00 | 0.00 | 0.00 | 82 | 1014.2 |
| 20260906121039 | 71 | 32 | 2.0 | 4.0 | 0.00 | 0.00 | 0.00 | 82 | 1014.2 |
| 20260906120539 | 70 | 18 | 1.0 | 3.0 | 0.00 | 0.00 | 0.00 | 82 | 1014.2 |
| 20260906120052 | 70 | 43 | 1.0 | 3.0 | 0.00 | 0.00 | 0.00 | 82 | 1014.1 |
| 20260906115539 | 70 | 0 | 1.0 | 3.0 | 0.00 | 0.00 | 0.00 | 82 | 1014.1 |
| 20260906115040 | 70 | 57 | 1.0 | 3.0 | 0.00 | 0.00 | 0.00 | 82 | 1014.2 |
| 20260906114604 | 70 | 69 | 1.0 | 2.0 | 0.00 | 0.00 | 0.00 | 82 | 1014.2 |
| 20260906114040 | 70 | 69 | 1.0 | 2.0 | 0.00 | 0.00 | 0.00 | 82 | 1014.1 |
| 20260906113538 | 70 | 69 | 1.0 | 2.0 | 0.00 | 0.00 | 0.00 | 82 | 1014.1 |
| 20260906113058 | 70 | 0 | 0.0 | 2.0 | 0.00 | 0.00 | 0.00 | 82 | 1014.1 |
| 20260906112539 | 71 | 0 | 0.0 | 2.0 | 0.00 | 0.00 | 0.00 | 82 | 1014.0 |
| 20260906112039 | 70 | 69 | 0.0 | 3.0 | 0.00 | 0.00 | 0.00 | 82 | 1014.0 |
| 20260906111558 | 70 | 0 | 0.0 | 3.0 | 0.00 | 0.00 | 0.00 | 82 | 1013.9 |
| 20260906111039 | 71 | 63 | 1.0 | 3.0 | 0.00 | 0.00 | 0.00 | 82 | 1013.9 |
| 20260906110541 | 71 | 74 | 0.0 | 2.0 | 0.00 | 0.00 | 0.00 | 82 | 1013.9 |
| 20260906110053 | 71 | 0 | 0.0 | 2.0 | 0.00 | 0.00 | 0.00 | 82 | 1013.8 |
| 20260906105539 | 71 | 46 | 1.0 | 2.0 | 0.00 | 0.00 | 0.00 | 82 | 1013.9 |
| 20260906105039 | 71 | 0 | 0.0 | 2.0 | 0.00 | 0.00 | 0.00 | 82 | 1013.9 |
| 20260906104602 | 71 | 0 | 1.0 | 3.0 | 0.00 | 0.00 | 0.00 | 82 | 1013.7 |
| 20260906104041 | 71 | 0 | 0.0 | 3.0 | 0.00 | 0.00 | 0.00 | 82 | 1013.6 |
| 20260906103539 | 70 | 45 | 1.0 | 3.0 | 0.00 | 0.00 | 0.00 | 82 | 1013.7 |
| 20260906103058 | 70 | 0 | 0.0 | 3.0 | 0.00 | 0.00 | 0.00 | 82 | 1013.5 |
| 20260906102540 | 70 | 67 | 1.0 | 3.0 | 0.00 | 0.00 | 0.00 | 82 | 1013.5 |
| 20260906102041 | 70 | 85 | 1.0 | 3.0 | 0.00 | 0.00 | 0.00 | 82 | 1013.6 |
| 20260906101554 | 70 | 0 | 1.0 | 3.0 | 0.00 | 0.00 | 0.00 | 82 | 1013.5 |
| 20260906101040 | 70 | 85 | 1.0 | 4.0 | 0.00 | 0.00 | 0.00 | 82 | 1013.6 |
| 20260906100540 | 70 | 0 | 1.0 | 4.0 | 0.00 | 0.00 | 0.00 | 82 | 1013.7 |
| 20260906100050 | 71 | 76 | 2.0 | 4.0 | 0.00 | 0.00 | 0.00 | 82 | 1013.8 |
| 20260906095543 | 70 | 61 | 1.0 | 3.0 | 0.00 | 0.00 | 0.00 | 82 | 1013.7 |
| 20260906095042 | 70 | 32 | 0.0 | 2.0 | 0.00 | 0.00 | 0.00 | 82 | 1013.8 |
| 20260906094557 | 70 | 32 | 0.0 | 3.0 | 0.00 | 0.00 | 0.00 | 82 | 1013.9 |
| 20260906094041 | 70 | 0 | 1.0 | 3.0 | 0.00 | 0.00 | 0.00 | 82 | 1013.9 |
| 20260906093539 | 70 | 82 | 1.0 | 3.0 | 0.00 | 0.00 | 0.00 | 82 | 1013.8 |
| 20260906093116 | 70 | 171 | 1.0 | 4.0 | 0.00 | 0.00 | 0.00 | 82 | 1013.8 |
| 20260906092538 | 70 | 0 | 0.0 | 4.0 | 0.00 | 0.00 | 0.00 | 82 | 1013.8 |
| 20260906092039 | 70 | 331 | 2.0 | 8.0 | 0.00 | 0.00 | 0.00 | 82 | 1013.9 |
| 20260906091556 | 70 | 0 | 1.0 | 9.0 | 0.00 | 0.00 | 0.00 | 83 | 1013.7 |
| 20260906091041 | 70 | 58 | 5.0 | 13.0 | 0.00 | 0.00 | 0.00 | 82 | 1013.9 |
| 20260906090539 | 71 | 5 | 4.0 | 13.0 | 0.00 | 0.00 | 0.00 | 82 | 1013.7 |
| 20260906090053 | 71 | 355 | 9.0 | 13.0 | 0.00 | 0.00 | 0.00 | 82 | 1013.8 |
| 20260906085541 | 71 | 5 | 2.0 | 3.0 | 0.00 | 0.00 | 0.00 | 82 | 1013.6 |
| 20260906085041 | 70 | 69 | 0.0 | 2.0 | 0.00 | 0.00 | 0.00 | 82 | 1013.4 |
| 20260906084558 | 70 | 109 | 0.0 | 2.0 | 0.00 | 0.00 | 0.00 | 82 | 1013.3 |
| 20260906084041 | 70 | 109 | 0.0 | 2.0 | 0.00 | 0.00 | 0.00 | 83 | 1013.4 |
| 20260906083539 | 70 | 109 | 1.0 | 2.0 | 0.00 | 0.00 | 0.00 | 83 | 1013.4 |
| 20260906083058 | 70 | 109 | 0.0 | 2.0 | 0.00 | 0.00 | 0.00 | 83 | 1013.5 |
| 20260906082538 | 70 | 0 | 0.0 | 3.0 | 0.00 | 0.00 | 0.00 | 83 | 1013.4 |
| 20260906082038 | 70 | 109 | 1.0 | 3.0 | 0.00 | 0.00 | 0.00 | 83 | 1013.4 |
| 20260906081556 | 70 | 0 | 1.0 | 3.0 | 0.00 | 0.00 | 0.00 | 83 | 1013.4 |
| 20260906081042 | 71 | 98 | 0.0 | 2.0 | 0.00 | 0.00 | 0.00 | 83 | 1013.6 |
| 20260906080538 | 71 | 49 | 0.0 | 2.0 | 0.00 | 0.00 | 0.00 | 83 | 1013.5 |
| 20260906080054 | 71 | 0 | 0.0 | 3.0 | 0.00 | 0.00 | 0.00 | 83 | 1013.4 |
| 20260906075542 | 71 | 59 | 1.0 | 3.0 | 0.00 | 0.00 | 0.00 | 83 | 1013.5 |
| 20260906075042 | 71 | 83 | 0.0 | 3.0 | 0.00 | 0.00 | 0.00 | 83 | 1013.5 |
| 20260906074548 | 71 | 0 | 0.0 | 0.0 | 0.00 | 0.00 | 0.00 | 83 | 1013.3 |
| 20260906074041 | 71 | 0 | 0.0 | 2.0 | 0.00 | 0.00 | 0.00 | 83 | 1013.1 |
| 20260906073541 | 71 | 0 | 0.0 | 2.0 | 0.00 | 0.00 | 0.00 | 83 | 1013.1 |
| 20260906073056 | 71 | 0 | 0.0 | 2.0 | 0.00 | 0.00 | 0.00 | 83 | 1013.1 |
| 20260906072539 | 71 | 96 | 0.0 | 2.0 | 0.00 | 0.00 | 0.00 | 83 | 1013.1 |
| 20260906072037 | 71 | 0 | 1.0 | 2.0 | 0.00 | 0.00 | 0.00 | 83 | 1013.2 |
| 20260906071557 | 71 | 108 | 1.0 | 2.0 | 0.00 | 0.00 | 0.00 | 83 | 1013.4 |
| 20260906071038 | 71 | 0 | 0.0 | 2.0 | 0.00 | 0.00 | 0.00 | 83 | 1013.4 |
| 20260906070539 | 71 | 95 | 1.0 | 4.0 | 0.00 | 0.00 | 0.00 | 83 | 1013.4 |
| 20260906070055 | 71 | 51 | 1.0 | 4.0 | 0.00 | 0.00 | 0.00 | 83 | 1013.4 |
| 20260906065538 | 72 | 31 | 2.0 | 4.0 | 0.00 | 0.00 | 0.00 | 83 | 1013.5 |
| 20260906065038 | 72 | 42 | 1.0 | 4.0 | 0.00 | 0.00 | 0.00 | 83 | 1013.6 |
| 20260906064548 | 72 | 39 | 1.0 | 3.0 | 0.00 | 0.00 | 0.00 | 83 | 1013.6 |
| 20260906064037 | 72 | 0 | 0.0 | 2.0 | 0.00 | 0.00 | 0.00 | 83 | 1013.6 |
| 20260906063539 | 72 | 0 | 0.0 | 2.0 | 0.00 | 0.00 | 0.00 | 83 | 1013.6 |
| 20260906063047 | 72 | 103 | 0.0 | 3.0 | 0.00 | 0.00 | 0.00 | 83 | 1013.6 |
| 20260906062540 | 72 | 55 | 1.0 | 4.0 | 0.00 | 0.00 | 0.00 | 82 | 1013.6 |
| 20260906062039 | 72 | 35 | 1.0 | 4.0 | 0.00 | 0.00 | 0.00 | 82 | 1013.6 |
| 20260906061559 | 72 | 28 | 2.0 | 4.0 | 0.00 | 0.00 | 0.00 | 82 | 1013.7 |
| 20260906061039 | 72 | 74 | 2.0 | 4.0 | 0.00 | 0.00 | 0.00 | 82 | 1013.7 |
| 20260906060539 | 72 | 76 | 0.0 | 2.0 | 0.00 | 0.00 | 0.00 | 83 | 1013.6 |
| 20260906060055 | 72 | 107 | 0.0 | 2.0 | 0.00 | 0.00 | 0.00 | 83 | 1013.7 |
| 20260906055540 | 72 | 107 | 0.0 | 2.0 | 0.00 | 0.00 | 0.00 | 83 | 1013.8 |
| 20260906055039 | 72 | 0 | 0.0 | 2.0 | 0.00 | 0.00 | 0.00 | 83 | 1013.8 |
| 20260906054557 | 72 | 107 | 0.0 | 2.0 | 0.00 | 0.00 | 0.00 | 83 | 1013.9 |
| 20260906054040 | 72 | 0 | 0.0 | 2.0 | 0.00 | 0.00 | 0.00 | 83 | 1014.1 |
| 20260906053539 | 72 | 0 | 0.0 | 3.0 | 0.00 | 0.00 | 0.00 | 83 | 1014.1 |
| 20260906053050 | 72 | 0 | 1.0 | 3.0 | 0.00 | 0.00 | 0.00 | 83 | 1014.2 |
| 20260906052542 | 72 | 104 | 0.0 | 4.0 | 0.00 | 0.00 | 0.00 | 83 | 1014.2 |
| 20260906052040 | 72 | 117 | 1.0 | 4.0 | 0.00 | 0.00 | 0.00 | 83 | 1014.3 |
| 20260906051555 | 72 | 83 | 1.0 | 3.0 | 0.00 | 0.00 | 0.00 | 83 | 1014.4 |
| 20260906051039 | 73 | 82 | 1.0 | 2.0 | 0.00 | 0.00 | 0.00 | 83 | 1014.5 |
| 20260906050541 | 73 | 82 | 0.0 | 3.0 | 0.00 | 0.00 | 0.00 | 83 | 1014.5 |
| 20260906050119 | 73 | 82 | 1.0 | 4.0 | 0.00 | 0.00 | 0.00 | 83 | 1014.5 |
| 20260906045539 | 73 | 42 | 2.0 | 4.0 | 0.00 | 0.00 | 0.00 | 83 | 1014.4 |
| 20260906045039 | 73 | 72 | 2.0 | 4.0 | 0.00 | 0.00 | 0.00 | 83 | 1014.4 |
| 20260906044549 | 73 | 27 | 2.0 | 4.0 | 0.00 | 0.00 | 0.00 | 83 | 1014.4 |
| 20260906044038 | 73 | 340 | 2.0 | 4.0 | 0.00 | 0.00 | 0.00 | 83 | 1014.5 |
| 20260906043539 | 73 | 303 | 0.0 | 3.0 | 0.00 | 0.00 | 0.00 | 83 | 1014.4 |
| 20260906043058 | 73 | 28 | 1.0 | 2.0 | 0.00 | 0.00 | 0.00 | 83 | 1014.3 |
| 20260906042540 | 73 | 120 | 0.0 | 2.0 | 0.00 | 0.00 | 0.00 | 84 | 1014.3 |
| 20260906042039 | 73 | 120 | 0.0 | 2.0 | 0.00 | 0.00 | 0.00 | 84 | 1014.3 |
| 20260906041554 | 73 | 0 | 0.0 | 2.0 | 0.00 | 0.00 | 0.00 | 83 | 1014.2 |
| 20260906041039 | 73 | 120 | 0.0 | 3.0 | 0.00 | 0.00 | 0.00 | 84 | 1014.1 |
| 20260906040539 | 73 | 120 | 1.0 | 3.0 | 0.00 | 0.00 | 0.00 | 84 | 1014.1 |
| 20260906040100 | 73 | 44 | 1.0 | 3.0 | 0.00 | 0.00 | 0.00 | 84 | 1014.2 |
| 20260906035541 | 73 | 0 | 0.0 | 2.0 | 0.00 | 0.00 | 0.00 | 84 | 1014.3 |
| 20260906035039 | 74 | 0 | 0.0 | 2.0 | 0.00 | 0.00 | 0.00 | 84 | 1014.3 |
| 20260906034559 | 74 | 0 | 0.0 | 2.0 | 0.00 | 0.00 | 0.00 | 84 | 1014.4 |
| 20260906034039 | 74 | 0 | 0.0 | 2.0 | 0.00 | 0.00 | 0.00 | 83 | 1014.5 |
| 20260906033538 | 74 | 64 | 0.0 | 4.0 | 0.00 | 0.00 | 0.00 | 83 | 1014.5 |
| 20260906033108 | 74 | 0 | 0.0 | 4.0 | 0.00 | 0.00 | 0.00 | 84 | 1014.4 |
| 20260906032544 | 74 | 58 | 3.0 | 4.0 | 0.00 | 0.00 | 0.00 | 84 | 1014.4 |
| 20260906032038 | 74 | 91 | 0.0 | 2.0 | 0.00 | 0.00 | 0.00 | 84 | 1014.4 |
| 20260906031552 | 74 | 0 | 0.0 | 2.0 | 0.00 | 0.00 | 0.00 | 84 | 1014.4 |
| 20260906031038 | 75 | 91 | 0.0 | 3.0 | 0.00 | 0.00 | 0.00 | 84 | 1014.4 |
| 20260906030538 | 75 | 54 | 1.0 | 3.0 | 0.00 | 0.00 | 0.00 | 84 | 1014.4 |
| 20260906030059 | 75 | 30 | 1.0 | 3.0 | 0.00 | 0.00 | 0.00 | 84 | 1014.3 |
| 20260906025539 | 75 | 55 | 1.0 | 2.0 | 0.00 | 0.00 | 0.00 | 84 | 1014.4 |
| 20260906025040 | 75 | 55 | 0.0 | 2.0 | 0.00 | 0.00 | 0.00 | 84 | 1014.3 |
| 20260906024612 | 75 | 55 | 1.0 | 2.0 | 0.00 | 0.00 | 0.00 | 84 | 1014.3 |
| 20260906024038 | 75 | 0 | 0.0 | 2.0 | 0.00 | 0.00 | 0.00 | 84 | 1014.3 |
| 20260906023538 | 75 | 0 | 0.0 | 2.0 | 0.00 | 0.00 | 0.00 | 84 | 1014.2 |
| 20260906023057 | 75 | 26 | 0.0 | 2.0 | 0.00 | 0.00 | 0.00 | 84 | 1014.3 |
| 20260906022538 | 75 | 0 | 0.0 | 2.0 | 0.00 | 0.00 | 0.00 | 84 | 1014.3 |
| 20260906022039 | 76 | 0 | 0.0 | 2.0 | 0.00 | 0.00 | 0.00 | 84 | 1014.3 |
| 20260906021557 | 76 | 0 | 1.0 | 3.0 | 0.00 | 0.00 | 0.00 | 84 | 1014.4 |
| 20260906021039 | 76 | 0 | 0.0 | 3.0 | 0.00 | 0.00 | 0.00 | 84 | 1014.2 |
| 20260906020538 | 76 | 79 | 1.0 | 3.0 | 0.00 | 0.00 | 0.00 | 84 | 1014.2 |
| 20260906020058 | 76 | 42 | 0.0 | 2.0 | 0.00 | 0.00 | 0.00 | 84 | 1014.3 |
| 20260906015538 | 76 | 0 | 0.0 | 2.0 | 0.00 | 0.00 | 0.00 | 84 | 1014.2 |
| 20260906015038 | 76 | 0 | 0.0 | 2.0 | 0.00 | 0.00 | 0.00 | 84 | 1014.2 |
| 20260906014601 | 76 | 67 | 0.0 | 2.0 | 0.00 | 0.00 | 0.00 | 84 | 1014.1 |
| 20260906014039 | 76 | 67 | 0.0 | 2.0 | 0.00 | 0.00 | 0.00 | 84 | 1014.0 |
| 20260906013538 | 76 | 67 | 0.0 | 2.0 | 0.00 | 0.00 | 0.00 | 84 | 1013.7 |
| 20260906013050 | 76 | 0 | 0.0 | 2.0 | 0.00 | 0.00 | 0.00 | 84 | 1013.6 |
| 20260906012537 | 76 | 90 | 0.0 | 2.0 | 0.00 | 0.00 | 0.00 | 84 | 1013.7 |
| 20260906012039 | 76 | 90 | 1.0 | 2.0 | 0.00 | 0.00 | 0.00 | 84 | 1013.7 |
| 20260906011559 | 76 | 90 | 1.0 | 2.0 | 0.00 | 0.00 | 0.00 | 84 | 1013.6 |
| 20260906011039 | 77 | 90 | 0.0 | 2.0 | 0.00 | 0.00 | 0.00 | 84 | 1013.6 |
| 20260906010539 | 77 | 0 | 0.0 | 2.0 | 0.00 | 0.00 | 0.00 | 84 | 1013.5 |
| 20260906010059 | 77 | 355 | 1.0 | 2.0 | 0.00 | 0.00 | 0.00 | 84 | 1013.4 |
| 20260906005539 | 77 | 40 | 0.0 | 3.0 | 0.00 | 0.00 | 0.00 | 84 | 1013.3 |
| 20260906005041 | 77 | 0 | 0.0 | 3.0 | 0.00 | 0.00 | 0.00 | 84 | 1013.1 |
| 20260906004555 | 77 | 40 | 2.0 | 3.0 | 0.00 | 0.00 | 0.00 | 84 | 1013.1 |
| 20260906004038 | 78 | 25 | 0.0 | 2.0 | 0.00 | 0.00 | 0.00 | 84 | 1013.2 |
| 20260906003538 | 78 | 85 | 1.0 | 2.0 | 0.00 | 0.00 | 0.00 | 84 | 1013.1 |
| 20260906003101 | 78 | 85 | 1.0 | 2.0 | 0.00 | 0.00 | 0.00 | 84 | 1013.2 |
| 20260906002538 | 78 | 85 | 1.0 | 3.0 | 0.00 | 0.00 | 0.00 | 84 | 1013.2 |
| 20260906002038 | 78 | 36 | 0.0 | 3.0 | 0.00 | 0.00 | 0.00 | 84 | 1013.2 |
| 20260906001559 | 79 | 36 | 1.0 | 5.0 | 0.00 | 0.00 | 0.00 | 84 | 1013.2 |
| 20260906001038 | 79 | 0 | 0.0 | 5.0 | 0.00 | 0.00 | 0.00 | 84 | 1013.3 |
| 20260906000538 | 79 | 30 | 3.0 | 5.0 | 0.00 | 0.00 | 0.00 | 83 | 1013.3 |
| 20260906000057 | 80 | 24 | 3.0 | 4.0 | 0.00 | 0.00 | 0.00 | 83 | 1013.4 |
| 20260905235538 | 80 | 347 | 0.0 | 2.0 | 0.00 | 0.00 | 0.00 | 83 | 1013.4 |
| 20260905235038 | 80 | 0 | 0.0 | 5.0 | 0.00 | 0.00 | 0.00 | 82 | 1013.4 |
| 20260905234610 | 80 | 0 | 1.0 | 5.0 | 0.00 | 0.00 | 0.00 | 82 | 1013.4 |
| 20260905234038 | 81 | 263 | 0.0 | 1.0 | 0.00 | 0.00 | 0.00 | 82 | 1013.4 |
| 20260905233538 | 81 | 0 | 0.0 | 1.0 | 0.00 | 0.00 | 0.00 | 81 | 1013.4 |
| 20260905233100 | 80 | 0 | 0.0 | 0.0 | 0.00 | 0.00 | 0.00 | 80 | 1013.2 |
| 20260905232536 | 81 | 0 | 0.0 | 0.0 | 0.00 | 0.00 | 0.00 | 80 | 1013.1 |
| 20260905232039 | 81 | 0 | 0.0 | 0.0 | 0.00 | 0.00 | 0.00 | 80 | 1013.1 |
| 20260905231557 | 81 | 0 | 0.0 | 1.0 | 0.00 | 0.00 | 0.00 | 80 | 1013.1 |
| 20260905231038 | 81 | 0 | 0.0 | 3.0 | 0.00 | 0.00 | 0.00 | 79 | 1013.1 |
| 20260905230542 | 81 | 0 | 0.0 | 4.0 | 0.00 | 0.00 | 0.00 | 79 | 1013.0 |
| 20260905230126 | 81 | 236 | 2.0 | 4.0 | 0.00 | 0.00 | 0.00 | 79 | 1013.2 |
| 20260905225542 | 81 | 246 | 2.0 | 4.0 | 0.00 | 0.00 | 0.00 | 78 | 1013.1 |
| 20260905225038 | 81 | 252 | 1.0 | 3.0 | 0.00 | 0.00 | 0.00 | 78 | 1013.2 |
| 20260905224600 | 81 | 0 | 0.0 | 2.0 | 0.00 | 0.00 | 0.00 | 78 | 1013.2 |
| 20260905224038 | 81 | 21 | 0.0 | 2.0 | 0.00 | 0.00 | 0.00 | 78 | 1013.2 |
| 20260905223538 | 81 | 109 | 0.0 | 2.0 | 0.00 | 0.00 | 0.00 | 77 | 1013.2 |
| 20260905223057 | 81 | 88 | 0.0 | 4.0 | 0.00 | 0.00 | 0.00 | 77 | 1013.3 |
| 20260905222541 | 81 | 0 | 0.0 | 8.0 | 0.00 | 0.00 | 0.00 | 76 | 1013.4 |
| 20260905222038 | 81 | 218 | 2.0 | 9.0 | 0.00 | 0.00 | 0.00 | 77 | 1013.4 |
| 20260905221557 | 81 | 236 | 5.0 | 9.0 | 0.00 | 0.00 | 0.00 | 77 | 1013.4 |
| 20260905221038 | 82 | 242 | 5.0 | 9.0 | 0.00 | 0.00 | 0.00 | 74 | 1013.5 |
| 20260905220538 | 82 | 235 | 6.0 | 8.0 | 0.00 | 0.00 | 0.00 | 71 | 1013.5 |
| 20260905220108 | 82 | 244 | 4.0 | 8.0 | 0.00 | 0.00 | 0.00 | 71 | 1013.4 |
| 20260905215538 | 82 | 292 | 2.0 | 6.0 | 0.00 | 0.00 | 0.00 | 72 | 1013.2 |
| 20260905215041 | 81 | 22 | 3.0 | 8.0 | 0.00 | 0.00 | 0.00 | 72 | 1013.1 |
| 20260905214557 | 80 | 360 | 3.0 | 8.0 | 0.00 | 0.00 | 0.00 | 73 | 1013.2 |
| 20260905214038 | 80 | 294 | 4.0 | 8.0 | 0.00 | 0.00 | 0.00 | 73 | 1013.3 |
| 20260905213539 | 80 | 290 | 3.0 | 9.0 | 0.00 | 0.00 | 0.00 | 73 | 1013.2 |
| 20260905213057 | 80 | 269 | 5.0 | 11.0 | 0.00 | 0.00 | 0.00 | 73 | 1013.4 |
| 20260905212539 | 80 | 355 | 5.0 | 11.0 | 0.00 | 0.00 | 0.00 | 71 | 1013.6 |
| 20260905212038 | 81 | 319 | 5.0 | 10.0 | 0.00 | 0.00 | 0.00 | 72 | 1013.7 |
| 20260905211558 | 81 | 12 | 3.0 | 6.0 | 0.00 | 0.00 | 0.00 | 72 | 1013.8 |
| 20260905211039 | 81 | 26 | 1.0 | 10.0 | 0.00 | 0.00 | 0.00 | 71 | 1013.9 |
| 20260905210538 | 81 | 0 | 4.0 | 10.0 | 0.00 | 0.00 | 0.00 | 69 | 1013.8 |
| 20260905210051 | 82 | 292 | 7.0 | 10.0 | 0.00 | 0.00 | 0.00 | 69 | 1013.8 |
| 20260905205539 | 83 | 305 | 5.0 | 14.0 | 0.00 | 0.00 | 0.00 | 70 | 1013.7 |
| 20260905205041 | 84 | 279 | 8.0 | 14.0 | 0.00 | 0.00 | 0.00 | 69 | 1013.5 |
| 20260905204557 | 86 | 255 | 3.0 | 4.0 | 0.00 | 0.00 | 0.00 | 69 | 1013.4 |
| 20260905204039 | 86 | 263 | 1.0 | 3.0 | 0.00 | 0.00 | 0.00 | 68 | 1013.3 |
| 20260905203541 | 87 | 0 | 0.0 | 3.0 | 0.00 | 0.00 | 0.00 | 68 | 1013.4 |
| 20260905203101 | 87 | 69 | 1.0 | 5.0 | 0.00 | 0.00 | 0.00 | 66 | 1013.5 |
| 20260905202539 | 87 | 128 | 1.0 | 5.0 | 0.00 | 0.00 | 0.00 | 63 | 1013.5 |
| 20260905202039 | 88 | 69 | 3.0 | 7.0 | 0.00 | 0.00 | 0.00 | 63 | 1013.5 |
| 20260905201555 | 88 | 20 | 3.0 | 11.0 | 0.00 | 0.00 | 0.00 | 60 | 1013.7 |
| 20260905201039 | 88 | 17 | 6.0 | 12.0 | 0.00 | 0.00 | 0.00 | 62 | 1013.7 |
| 20260905200539 | 89 | 48 | 7.0 | 14.0 | 0.00 | 0.00 | 0.00 | 61 | 1013.7 |
| 20260905200106 | 89 | 43 | 6.0 | 14.0 | 0.00 | 0.00 | 0.00 | 61 | 1013.8 |
| 20260905195538 | 89 | 26 | 8.0 | 14.0 | 0.00 | 0.00 | 0.00 | 60 | 1013.8 |
| 20260905195042 | 89 | 15 | 7.0 | 14.0 | 0.00 | 0.00 | 0.00 | 63 | 1013.7 |
| 20260905194557 | 89 | 0 | 3.0 | 14.0 | 0.00 | 0.00 | 0.00 | 62 | 1013.6 |
| 20260905194040 | 89 | 360 | 8.0 | 14.0 | 0.00 | 0.00 | 0.00 | 62 | 1013.5 |
| 20260905193539 | 89 | 19 | 7.0 | 12.0 | 0.00 | 0.00 | 0.00 | 63 | 1013.6 |
| 20260905193108 | 89 | 24 | 5.0 | 12.0 | 0.00 | 0.00 | 0.00 | 62 | 1013.6 |
| 20260905192539 | 89 | 24 | 4.0 | 11.0 | 0.00 | 0.00 | 0.00 | 62 | 1013.6 |
| 20260905192041 | 89 | 43 | 6.0 | 15.0 | 0.00 | 0.00 | 0.00 | 62 | 1013.6 |
| 20260905191554 | 90 | 24 | 6.0 | 15.0 | 0.00 | 0.00 | 0.00 | 61 | 1013.7 |
| 20260905191039 | 90 | 17 | 5.0 | 9.0 | 0.00 | 0.00 | 0.00 | 60 | 1013.8 |
| 20260905190538 | 89 | 352 | 2.0 | 9.0 | 0.00 | 0.00 | 0.00 | 60 | 1014.0 |
| 20260905185539 | 89 | 333 | 7.0 | 13.0 | 0.00 | 0.00 | 0.00 | 61 | 1014.1 |
| 20260905185038 | 89 | 5 | 1.0 | 6.0 | 0.00 | 0.00 | 0.00 | 60 | 1014.0 |
| 20260905184604 | 89 | 269 | 3.0 | 9.0 | 0.00 | 0.00 | 0.00 | 60 | 1013.9 |
| 20260905184039 | 89 | 313 | 4.0 | 9.0 | 0.00 | 0.00 | 0.00 | 59 | 1013.8 |
| 20260905183540 | 89 | 28 | 2.0 | 9.0 | 0.00 | 0.00 | 0.00 | 61 | 1013.9 |
| 20260905183059 | 89 | 68 | 3.0 | 12.0 | 0.00 | 0.00 | 0.00 | 61 | 1014.0 |
| 20260905182539 | 89 | 33 | 7.0 | 12.0 | 0.00 | 0.00 | 0.00 | 62 | 1014.2 |
| 20260905182039 | 89 | 42 | 5.0 | 11.0 | 0.00 | 0.00 | 0.00 | 62 | 1014.2 |
| 20260905181551 | 89 | 34 | 0.0 | 9.0 | 0.00 | 0.00 | 0.00 | 61 | 1014.2 |